Flag for U.S.A. Weather past 2 weeks in Jacksonville, Florida, U.S.A.

Now
68 °F

Broken clouds.


Feels Like: 68 °F
Forecast: 64 / 81 °F
Wind: 8 mph from West

Location: Jacksonville Naval Air Station

Current Time: Apr 21, 2015 at 8:48:35 AM

Latest Report: Apr 21, 2015 at 7:53 AM


Visibility: 10 mi

Pressure: 29.95 "Hg

Humidity: 84%

Dew point: 63 °F

Location of JacksonvilleLocation

Historic Weather in Jacksonville — Graph

°F

Jacksonville temperature yesterday

Maximum temperature yesterday: 81 °F (at 12:53 PM)
Minimum temperature yesterday: 68 °F (at 11:53 PM)
Average temperature yesterday: 74 °F

Past Weeks' High & Low Weather Summary

 TemperatureHumidityPressure
High92 °F (Apr 18, 4:53 PM)88% (Apr 13, 5:53 AM)30.23 "Hg (Apr 13, 5:53 AM)
Low67 °F (Apr 17, 9:53 AM)37% (Apr 8, 5:53 PM)29.79 "Hg (Apr 20, 6:53 PM)
Average77 °F71%30.06 "Hg
* Reported Apr 6 6:53 AM — Apr 21 6:53 AM, Jacksonville, Weather by CustomWeather, © 2015

Note: Actual official high and low records may vary slightly from our data, if they occured in-between our weather recording intervals... More about our weather records

Advertising

Jacksonville weather history for previous 24 hours

 ConditionsComfort  
Time TempWeatherWind HumidityBarometerVisibility
6:53 AM
Tue, Apr 21
67 °FPassing clouds.7 mph85%29.92 "Hg10 mi
5:53 AM68 °FPassing clouds.8 mph82%29.91 "Hg10 mi
4:53 AM68 °FPassing clouds.7 mph82%29.90 "Hg10 mi
3:53 AM68 °FPassing clouds.6 mph82%29.89 "Hg10 mi
2:53 AM68 °FPartly cloudy.9 mph78%29.90 "Hg10 mi
1:53 AM68 °FPassing clouds.5 mph82%29.92 "Hg10 mi
12:53 AM68 °FPartly cloudy.6 mph82%29.93 "Hg10 mi
11:53 PM
Mon, Apr 20
68 °FPartly cloudy.7 mph84%29.90 "Hg10 mi
10:53 PM69 °FMostly cloudy.7 mph79%29.90 "Hg10 mi
9:53 PM69 °FOvercast.7 mph81%29.89 "Hg10 mi
8:53 PM70 °FOvercast.6 mph79%29.86 "Hg10 mi
7:53 PM70 °FMore clouds than sun.10 mph76%29.83 "Hg10 mi
6:53 PM70 °FLight rain. More clouds than sun.12 mph76%29.79 "Hg10 mi
5:53 PM69 °FLight rain. More clouds than sun.9 mph81%29.88 "Hg10 mi
4:53 PM72 °FLight rain. Overcast.15 mph71%29.89 "Hg10 mi
3:53 PM72 °FLight rain. Mostly cloudy.10 mph68%29.84 "Hg10 mi
2:53 PM81 °FMore clouds than sun.26 mph58%29.88 "Hg9 mi
1:53 PM81 °FMore clouds than sun.10 mph56%29.89 "Hg10 mi
12:53 PM81 °FMore clouds than sun.10 mph56%29.90 "Hg10 mi
11:53 AM80 °FPartly sunny.14 mph60%29.92 "Hg10 mi
10:53 AM78 °FPartly sunny.12 mph64%29.91 "Hg10 mi
9:53 AM76 °FPartly sunny.8 mph72%29.88 "Hg10 mi
8:53 AM74 °FPartly sunny.9 mph76%29.88 "Hg10 mi
Weather by CustomWeather, © 2015

See weather overviewHow to use our weather pages